Regional Weather Roundup
Issued by NWS Kansas City/Pleasant Hill, MO

Home | Current Version | Previous Version | Graphics & Text | Print | Product List | Glossary Off
Versions: 1 2 3 4 5 6 7 8 9 10 11 12 13 14 15 16 17 18 19 20 21 22 23 24 25 26 27 28 29 30 31 32 33 34 35 36 37 38 39 40 41 42 43 44 45 46 47 48 49 50

000
ASUS43 KEAX 202204
RWREAX

WEATHER ROUNDUP FOR EASTERN KANSAS AND NORTHWEST MISSOURI
NATIONAL WEATHER SERVICE KANSAS CITY/PLEASANT HILL MO
500 PM CDT MON OCT 20 2014

KSZ040-057-103>105-MOZ028-029-037-043-202300-
...KANSAS CITY METROPOLITAN AREA...

CITY           SKY/WX    TMP DP  RH WIND       PRES   REMARKS
K.C. INTL      SUNNY     72  45  37 NW7       30.03S
K.C. DOWNTOWN  SUNNY     74  44  34 NW6       30.02S
LEES SUMMIT    SUNNY     73  45  36 N5        30.03S
OLATHE - IXD   SUNNY     72  46  39 N8        30.03S
OLATHE - OJC   SUNNY     74  44  34 N6        30.02S
LAWRENCE       SUNNY     75  46  35 N5        30.03S

$$

MOZ001>008-011>017-020>025-030>033-038>040-044>046-053-054-202300-
...NORTHERN AND CENTRAL MISSOURI...

CITY           SKY/WX    TMP DP  RH WIND       PRES   REMARKS
ST. JOSEPH     SUNNY     75  39  27 N7        30.02F
MOSBY          CLEAR     72  41  33 NW3       30.02S
WHITEMAN AFB   SUNNY     72  45  37 N8        30.01S
CLINTON        SUNNY     73  52  46 NW7       30.02R HAZE
SEDALIA        SUNNY     75  42  30 N8        30.02S
WARSAW         NOT AVBL
MARSHALL       SUNNY     73  45  35 NW7       30.02S
CHILLICOTHE      N/A     73  42  32 VRB6      30.02F
MOBERLY        SUNNY     72  39  30 W6        30.00F
KIRKSVILLE     SUNNY     69  44  40 N10       30.01R

$$

MOZ041-047>049-056>058-063>065-088>090-097-202300-
...EASTERN AND SOUTHERN MISSOURI...

CITY           SKY/WX    TMP DP  RH WIND       PRES   REMARKS
ST. LOUIS INTL SUNNY     72  43  35 NW12      29.96R
SPIRIT OF STL  SUNNY     71  42  35 N12       29.95R
COLUMBIA       SUNNY     72  43  35 NW10      30.00R
JEFFERSON CITY SUNNY     74  40  29 NW8       29.98S
MEXICO         SUNNY     72  46  40 NW6       29.99R
ROLLA          SUNNY     71  46  40 NW10      29.97S
LEBANON        SUNNY     73  50  43 NW6       30.00F
OSAGE BEACH    SUNNY     73  50  43 NW5       30.00R
SPRINGFIELD    SUNNY     74  55  51 NW6       30.01S
BRANSON        MOSUNNY   73  57  56 SW3       30.03F
NEVADA         SUNNY     73  55  53 N5        30.02S
JOPLIN         SUNNY     74  55  51 NW6       30.03R
WEST PLAINS    SUNNY     74  55  51 W7        30.00S

$$

IAZ060-094-KSZ022-034>040-054-083-096-NEZ052-066-093-202300-
...KANSAS...SOUTHEAST NEBRASKA AND IOWA...

CITY           SKY/WX    TMP DP  RH WIND       PRES   REMARKS
TOPEKA         SUNNY     75  45  34 N8        30.03S
MANHATTAN      SUNNY     77  41  27 NE6       30.03S
EMPORIA        SUNNY     76  43  30 N6        30.03S
CHANUTE        SUNNY     78  50  37 N5        30.02R
WICHITA        SUNNY     81  44  27 NE8       30.02S
OMAHA          SUNNY     72  37  28 W5        30.04S
LINCOLN        SUNNY     74  36  25 CALM      30.05F
FALLS CITY     SUNNY     74  35  24 N3        30.03S
LAMONI         SUNNY     70  41  34 NW12      30.02S
DES MOINES     MOSUNNY   71  38  29 NW9G18    30.00S

$$




USA.gov is the U.S. government's official web portal to all federal, state and local government web resources and services.